Theta_e
355 358 362 365 364 364 365 364 363 363 363 364 364 362 362 362 362 363 362 362 362 359 359 359 359 359 360 361 360 358 358 358 357 357 358 358 355 356 356 355 355 352 358
356 358 363 365 365 365 364 364 363 365 364 363 363 363 363 362 361 361 360 360 359 359 361 360 360 360 359 360 359 359 358 358 356 356 353 356 357 356 354 354 355 354 355
353 359 361 365 365 365 364 363 365 364 364 363 363 361 361 362 360 359 361 359 359 361 361 360 359 359 359 359 359 359 357 356 355 352 354 353 355 356 356 356 353 354 356
352 359 360 365 367 363 363 363 363 364 361 361 361 362 362 361 359 358 357 359 360 359 359 358 357 356 355 355 354 355 355 356 356 356 354 350 350 354 355 358 357 353 354
353 357 363 364 364 363 365 364 364 363 362 359 363 361 361 359 359 358 358 359 358 357 356 355 354 354 355 355 355 356 355 354 356 360 358 355 353 355 357 357 358 354 354
353 358 364 364 366 363 364 362 362 364 359 359 360 362 360 361 359 358 359 357 356 355 355 354 354 355 356 357 358 358 358 358 358 359 360 353 352 351 356 357 353 354 354
353 357 361 365 364 364 363 363 363 363 361 361 361 360 360 361 360 358 357 355 354 354 355 358 360 361 363 363 364 365 364 363 363 361 360 354 354 348 353 359 357 355 354
352 355 360 364 364 363 358 358 360 362 359 362 361 359 359 357 357 356 356 357 357 359 361 363 364 366 366 365 367 368 366 363 360 361 361 356 353 352 354 357 359 359 356
356 357 359 362 363 364 358 361 362 359 358 358 359 358 357 358 357 357 356 356 359 361 363 363 365 364 366 366 368 369 367 362 363 360 359 357 351 349 350 352 359 359 358
357 356 358 362 358 358 354 361 364 364 359 359 358 358 357 358 359 359 359 359 362 363 363 363 365 363 365 367 365 365 365 363 357 357 360 358 352 352 355 357 354 359 359
353 356 357 356 358 357 356 361 361 360 361 360 359 358 360 359 360 359 358 361 363 363 362 361 362 363 366 367 364 363 364 350 351 355 360 359 356 356 356 359 358 360 360
350 352 353 354 353 356 350 357 356 355 357 360 360 361 359 361 362 360 361 359 359 358 360 359 359 363 364 355 355 363 351 350 352 353 356 360 358 358 357 359 360 361 361
350 350 353 354 353 354 353 353 353 356 358 359 362 365 363 366 365 364 363 360 362 357 359 360 362 359 361 359 355 354 353 351 350 351 355 359 358 359 359 359 361 360 359
350 350 352 355 356 353 355 353 354 353 356 354 359 365 368 361 365 363 359 361 364 361 363 360 358 362 363 362 360 358 355 351 350 350 355 360 359 361 360 359 359 357 360
350 350 351 355 357 354 356 355 356 355 354 357 360 364 368 363 363 362 362 361 361 361 360 361 361 362 363 358 360 360 357 356 353 349 351 360 358 360 360 359 357 356 356
351 350 351 354 355 352 354 360 359 357 358 358 361 364 369 365 365 365 364 362 362 362 362 363 366 365 362 358 356 360 360 355 356 354 349 354 356 359 360 359 358 356 354
351 350 349 351 352 352 356 360 359 356 354 357 360 365 366 368 368 368 364 362 361 364 366 363 362 359 356 355 356 355 356 355 354 355 352 352 354 357 361 360 360 359 356
352 350 350 347 349 352 356 358 355 355 357 357 359 361 365 365 367 364 360 359 362 361 360 358 355 354 354 354 354 353 354 356 355 353 353 354 353 351 358 357 354 355 354
352 352 352 350 350 353 356 356 359 362 359 357 358 359 363 363 362 364 358 358 364 356 355 355 355 357 355 353 353 352 353 352 351 348 353 354 354 354 353 352 348 351 352
354 355 353 352 355 357 355 359 357 357 359 359 359 359 365 363 365 366 362 365 364 355 355 358 361 359 354 350 351 352 351 351 349 349 350 352 353 355 354 355 355 354 351
354 355 355 352 357 356 353 353 354 353 354 355 357 364 366 365 364 367 361 364 364 360 362 361 360 358 346 347 347 346 347 348 348 347 349 351 353 353 354 354 355 355 353
353 356 356 354 357 357 355 356 355 356 355 353 355 361 364 363 363 364 368 364 364 360 365 365 362 356 354 353 346 345 337 341 345 345 350 350 351 351 351 353 354 356 355
351 355 357 356 357 358 361 358 360 362 362 357 355 355 357 363 364 367 368 368 369 368 359 365 359 358 353 354 360 351 336 331 339 345 348 351 352 349 349 350 350 352 353
350 354 357 360 358 358 362 363 364 353 351 351 353 352 353 361 363 363 367 368 370 364 367 365 365 365 366 361 356 365 360 352 340 334 342 349 352 346 346 343 343 342 344
351 352 356 359 362 364 362 364 357 358 352 354 354 360 365 364 364 361 363 366 368 365 368 370 369 369 366 359 358 353 353 351 352 343 330 347 351 346 341 340 337 337 338
350 352 354 358 364 363 363 362 364 363 361 353 356 353 353 352 354 360 362 365 368 368 368 368 374 368 369 363 356 355 353 353 351 343 334 341 345 346 342 339 336 335 335
Wind_Speed
11 14 10 13 12 13 13 13 14 14 14 13 11 11 10 9 8 8 9 8 10 10 10 11 11 11 11 10 9 9 9 9 8 7 7 7 5 5 5 5 5 11 8
14 15 11 12 11 13 13 12 13 13 13 12 11 10 9 10 9 10 9 9 8 9 11 11 10 10 10 9 8 7 7 7 6 5 3 7 7 5 5 2 6 12 6
15 15 14 11 13 13 13 12 12 13 13 12 10 10 9 10 9 9 10 9 9 11 11 9 8 8 7 6 5 4 3 4 3 2 3 3 4 5 4 4 3 6 5
16 14 15 10 12 13 11 12 11 13 12 10 9 9 9 9 9 9 9 9 10 9 7 6 5 5 4 3 2 1 2 2 1 4 4 3 2 6 2 8 7 6 5
13 14 16 13 12 11 10 11 10 11 12 9 10 11 10 9 9 9 9 7 6 5 4 4 4 3 4 3 4 4 4 3 3 11 2 1 3 11 7 7 11 9 5
12 16 14 13 12 11 10 12 9 11 11 9 8 9 9 9 9 8 7 5 4 4 4 5 5 6 6 6 6 6 6 5 8 4 3 5 4 9 4 6 2 4 5
12 15 14 11 12 11 10 9 9 12 10 8 9 9 9 9 8 6 4 3 4 4 5 5 6 6 7 7 7 8 7 7 9 1 4 2 6 7 5 4 6 6 6
12 13 14 11 11 11 9 9 7 11 8 9 10 8 7 6 5 3 3 4 3 4 5 6 8 9 10 10 9 9 8 7 9 3 2 4 10 8 6 5 8 9 9
12 11 12 12 10 10 9 9 9 9 9 9 8 6 5 4 3 2 2 2 4 5 6 6 8 9 10 9 7 8 8 6 8 3 4 4 13 7 6 7 7 8 8
9 10 10 10 10 9 11 5 8 10 10 8 7 6 4 4 3 4 5 2 4 5 5 7 8 8 10 8 5 7 11 11 8 5 5 6 10 7 6 7 9 8 7
10 10 8 8 7 6 7 8 7 7 7 8 8 5 9 3 4 5 7 2 4 5 4 5 7 7 9 11 2 6 12 5 6 3 1 11 9 9 7 5 8 8 8
13 12 10 9 9 8 7 8 6 8 7 5 4 4 2 3 3 5 1 3 3 3 4 4 5 9 11 7 3 7 5 6 4 4 7 8 6 7 6 5 8 8 8
13 10 10 9 8 8 6 6 5 5 5 5 5 2 4 1 2 1 1 3 2 3 2 2 1 6 8 8 6 6 5 6 5 4 9 7 5 5 6 6 7 6 7
12 11 11 10 8 6 5 6 5 5 5 5 5 3 1 2 1 3 4 3 1 3 3 4 6 6 7 7 8 7 8 6 6 4 8 8 5 7 8 7 7 6 6
12 11 11 10 8 6 5 4 4 3 5 5 4 4 1 3 3 2 3 3 4 3 4 5 6 6 6 7 7 8 9 8 8 5 3 11 7 7 8 7 6 5 5
12 12 12 11 9 8 6 5 4 4 5 5 3 2 1 2 3 2 2 3 4 5 6 7 7 7 6 9 7 7 8 7 7 7 5 3 10 6 7 7 7 5 5
12 12 12 11 11 8 7 6 5 5 5 4 3 3 1 2 2 4 2 3 4 5 5 5 7 6 7 7 9 9 8 9 8 6 7 5 2 13 9 6 6 7 7
13 13 12 11 12 10 8 6 5 5 4 4 4 3 2 3 2 4 3 4 6 6 6 7 7 8 9 9 9 9 8 8 7 5 6 5 5 7 9 7 1 5 5
13 13 13 12 12 11 9 6 5 5 5 5 4 4 3 4 3 4 4 4 6 5 5 7 7 8 9 10 11 10 8 4 6 7 6 5 5 7 5 8 1 5 5
13 14 14 12 12 11 8 6 5 5 5 5 5 4 2 3 4 4 4 3 5 4 4 5 5 7 9 9 11 10 9 5 5 6 5 5 4 7 5 5 5 3 7
14 15 15 15 13 11 9 8 7 7 6 6 5 3 3 3 3 3 5 3 4 4 5 5 7 3 3 5 8 11 9 5 5 4 5 4 4 6 7 5 7 4 5
16 15 15 15 14 13 10 8 6 6 5 6 6 4 5 4 4 4 4 4 4 6 6 3 7 8 3 2 4 9 8 8 2 8 5 5 8 8 6 5 5 3 3
18 17 16 16 15 14 12 8 6 5 5 6 7 7 8 5 4 3 4 5 6 7 7 3 3 9 2 4 6 4 6 8 10 3 5 3 6 7 5 5 7 7 6
18 17 17 17 16 15 14 11 11 9 9 8 7 7 6 5 6 6 5 6 7 7 6 7 4 4 6 5 6 4 8 7 6 7 7 3 3 3 4 5 5 7 6
19 18 17 17 17 15 15 13 11 12 8 7 7 8 7 8 8 10 6 7 7 7 5 7 7 5 4 6 8 7 9 6 8 4 5 7 4 1 3 3 4 5 6
19 18 17 18 17 17 16 17 14 11 11 8 8 7 7 7 7 9 9 8 7 7 8 7 6 7 7 8 9 7 8 5 5 1 5 7 6 2 1 3 4 5 5
Wind_Direction
142 130 145 126 125 116 107 106 105 107 110 111 109 101 104 100 89 83 84 80 82 84 82 83 83 80 77 77 78 80 83 86 84 89 96 103 95 84 87 99 235 119 108
139 134 143 126 124 121 112 108 110 111 111 108 108 107 110 108 98 88 80 85 76 84 91 83 79 79 78 74 72 75 72 80 81 69 59 151 135 118 95 99 351 91 130
140 132 143 133 129 116 116 113 108 112 109 114 121 116 108 98 94 88 89 84 79 72 73 74 78 80 79 78 75 77 94 111 109 115 271 324 107 130 123 154 103 90 102
139 137 135 132 122 126 127 121 119 117 112 110 112 104 110 97 96 89 87 80 73 70 75 75 66 58 59 58 46 17 34 58 118 238 226 70 174 120 135 172 153 143 164
147 130 113 134 130 126 122 117 118 115 108 109 100 105 101 101 94 92 87 80 76 74 57 47 31 5 351 343 326 320 322 324 299 248 50 353 284 119 143 162 166 164 203
150 122 129 135 131 128 120 117 115 113 108 117 110 110 101 101 97 93 92 90 71 46 23 8 354 340 334 326 317 309 300 291 274 50 22 128 234 110 155 178 151 128 179
154 120 136 134 126 126 119 106 123 109 111 119 104 100 98 94 92 97 93 68 35 11 1 348 334 326 319 312 309 299 287 284 285 283 108 30 102 153 182 205 187 182 196
146 143 131 134 133 129 125 128 122 114 119 97 106 104 99 94 97 86 48 27 1 351 350 342 332 330 329 321 309 300 290 263 253 186 177 188 116 166 188 195 205 204 194
146 136 142 145 135 142 130 138 139 129 121 112 110 112 127 139 112 84 39 351 352 350 340 339 339 346 338 333 334 318 309 282 250 179 231 214 145 180 210 211 208 215 210
150 142 141 141 149 158 148 144 132 133 131 127 131 145 177 170 174 184 209 90 336 326 334 343 342 346 328 328 346 326 301 260 251 112 175 102 146 188 201 209 214 211 208
155 150 149 141 145 144 136 134 140 128 130 147 160 169 210 162 126 179 70 355 334 330 343 338 335 329 292 246 180 298 279 23 15 22 163 120 167 192 201 203 202 212 209
160 159 150 165 149 164 155 154 157 149 162 130 122 150 158 95 56 335 106 216 221 277 238 245 252 254 262 3 50 220 7 346 23 354 76 122 182 210 206 190 197 217 218
161 160 158 156 159 168 133 164 170 159 149 144 154 190 75 4 62 87 72 120 46 184 42 247 212 9 9 351 6 10 348 337 342 351 96 127 173 213 226 208 201 220 222
166 165 167 161 159 171 164 189 154 155 152 166 124 156 113 198 95 340 19 20 227 15 351 1 9 354 346 337 341 341 339 354 355 330 110 135 178 198 214 224 216 224 238
171 170 170 166 165 171 196 157 184 158 184 127 175 120 23 16 29 359 35 343 342 353 16 349 2 348 328 332 353 346 349 345 341 342 317 138 171 207 217 218 232 251 251
173 175 169 177 171 176 196 184 181 195 135 199 166 99 114 338 31 10 28 356 357 6 359 357 2 342 333 343 359 336 332 324 333 319 335 160 158 198 228 234 233 246 252
176 177 175 180 173 180 189 191 199 172 183 190 186 195 255 273 76 317 4 322 7 352 325 344 329 351 344 340 337 340 337 331 328 312 295 325 188 178 196 234 262 258 251
179 181 181 185 169 180 182 188 200 167 205 213 209 220 197 264 258 282 291 320 13 318 341 354 334 347 339 335 341 343 331 325 354 294 283 316 348 331 193 166 221 276 257
180 179 185 185 176 179 183 191 199 172 229 233 232 236 185 254 275 287 294 339 339 323 334 334 351 353 345 348 328 330 321 356 299 337 311 334 325 310 321 118 163 259 243
178 181 185 186 180 181 177 198 206 210 219 223 218 232 229 236 272 273 290 321 313 326 332 349 340 31 356 344 335 314 325 299 311 337 326 299 328 320 286 289 287 193 165
184 183 186 189 181 184 185 196 202 213 196 209 229 209 215 243 278 288 287 282 284 283 329 331 357 21 282 329 327 319 313 240 243 323 351 323 357 311 318 315 274 329 157
187 189 188 190 186 195 190 204 220 227 205 216 212 219 241 256 277 286 288 291 296 294 261 307 51 301 271 331 298 309 303 316 138 339 320 323 15 322 355 351 353 19 316
192 193 192 192 190 197 200 197 199 230 247 218 222 226 217 230 266 275 263 278 282 277 287 305 183 242 287 300 267 280 315 317 328 316 286 343 355 339 347 43 38 33 27
196 194 196 195 195 198 200 201 210 219 222 221 232 231 251 238 262 263 252 263 283 312 313 299 300 295 291 298 300 224 253 266 288 308 340 15 19 3 9 30 53 63 30
193 197 198 196 200 202 196 222 204 227 222 234 233 247 247 272 262 263 258 269 284 283 334 279 293 323 306 303 300 301 274 262 259 273 289 336 353 336 57 73 40 39 44
199 201 197 196 204 204 203 205 215 220 235 242 227 249 243 248 238 229 259 264 280 295 283 298 309 313 307 299 305 302 266 268 301 152 285 324 319 270 332 46 31 25 28